Change the Weather History Date:

Tuesday, January 15, 2013

  Actual Average Record
Temperature  
Mean Temperature 54 °F -  
Max Temperature 65 °F 47 °F 73 °F (1960)
Min Temperature 42 °F 29 °F 7 °F (1948)
Degree Days  
Heating Degree Days 11    
Growing Degree Days 4 (Base 50)    
Moisture  
Dew Point 45 °F    
Average Humidity 99    
Maximum Humidity 100    
Minimum Humidity 85    
Precipitation  
Precipitation 0.01 in - - ()
Sea Level Pressure  
Sea Level Pressure 30.17 in    
Wind  
Wind Speed 6 mph (NE)    
Max Wind Speed 16 mph    
Max Gust Speed 20 mph    
Visibility 4 miles    
Events Rain    
Averages and records for this station are not official NWS values.
T = Trace of Precipitation, MM = Missing Value Source: NWS Daily Summary

Daily Weather History Graph

Daily Weather History Graph

Search for Another Location

Airport or City:

Trip Planner

Search our weather history database for the weather conditions in past years. The results will help you decide how hot, cold, wet, or windy it might be!

Date:

Astronomy

Jan. 15, 2013 Rise Set
Actual Time 7:28 AM EST 5:29 PM EST
Civil Twilight 7:00 AM EST 5:57 PM EST
Nautical Twilight 6:29 AM EST 6:29 PM EST
Astronomical Twilight 5:58 AM EST 6:59 PM EST
Moon 9:43 AM EST (1/15) 10:06 PM EST (1/15)
Length of Visible Light 10h 56m
Length of Day
10h 01m
Waxing Crescent, 19% of the Moon is Illuminated
Jan 15
Waxing Crescent
Jan 18
First Quarter
Jan 26
Full
Feb 3
Last Quarter
Feb 10
New

Hourly Weather History & Observations

Time (EST) Temp. Windchill Dew Point Humidity Pressure Visibility Wind Dir Wind Speed Gust Speed Precip Events Conditions
12:15 AM 65.5 °F - 61.0 °F 85% 30.15 in 10.0 mi SSW 6.9 mph - N/A   Overcast
1:17 AM 57.2 °F - 57.2 °F 100% 30.17 in 10.0 mi North 10.4 mph - N/A   Overcast
1:35 AM 55.0 °F - 54.3 °F 97% 30.18 in 10.0 mi North 16.1 mph 19.6 mph N/A   Overcast
2:15 AM 50.4 °F - 49.3 °F 96% 30.20 in 10.0 mi NNE 5.8 mph - 0.01 in Rain Light Rain
2:17 AM 50.0 °F - 48.2 °F 94% 30.20 in 10.0 mi NNE 6.9 mph - 0.01 in Rain Rain
2:37 AM 48.2 °F - 48.2 °F 100% 30.21 in 7.0 mi NNE 8.1 mph - 0.01 in Rain Light Rain
2:57 AM 46.4 °F 41.1 °F 46.4 °F 100% 30.21 in 7.0 mi North 11.5 mph - N/A Rain Light Rain
3:15 AM 46.8 °F - 46.0 °F 97% 30.21 in 7.0 mi NNE 10.4 mph 17.3 mph N/A   Drizzle
3:17 AM 46.4 °F 41.9 °F 46.4 °F 100% 30.21 in 7.0 mi NNE 9.2 mph 17.3 mph N/A   Drizzle
3:35 AM 45.9 °F 40.4 °F 45.0 °F 97% 30.19 in 7.0 mi NE 11.5 mph 18.4 mph N/A   Light Drizzle
4:15 AM 45.5 °F 43.2 °F 44.8 °F 97% 30.17 in 10.0 mi ENE 4.6 mph - N/A   Overcast
4:55 AM 45.5 °F 42.5 °F 44.6 °F 97% 30.17 in 10.0 mi NE 5.8 mph - N/A   Overcast
5:15 AM 45.5 °F 43.2 °F 44.6 °F 97% 30.16 in 10.0 mi ENE 4.6 mph - N/A   Overcast
5:35 AM 45.5 °F 42.5 °F 44.2 °F 95% 30.15 in 10.0 mi NE 5.8 mph - N/A   Overcast
5:55 AM 45.1 °F 42.8 °F 44.2 °F 97% 30.15 in 10.0 mi ENE 4.6 mph - N/A   Overcast
6:15 AM 45.1 °F 42.8 °F 44.6 °F 98% 30.15 in 10.0 mi ENE 4.6 mph - N/A   Overcast
6:35 AM 45.0 °F 41.2 °F 44.2 °F 97% 30.15 in 10.0 mi East 6.9 mph - N/A   Overcast
6:55 AM 45.0 °F 43.5 °F 44.6 °F 99% 30.16 in 10.0 mi NE 3.5 mph - N/A   Overcast
7:15 AM 45.0 °F 42.6 °F 44.6 °F 99% 30.18 in 10.0 mi ENE 4.6 mph - N/A   Overcast
7:35 AM 45.0 °F 42.6 °F 44.8 °F 99% 30.19 in 10.0 mi NNE 4.6 mph - N/A   Overcast
7:55 AM 45.0 °F 43.5 °F 44.8 °F 99% 30.20 in 7.0 mi NE 3.5 mph - N/A   Overcast
8:15 AM 44.8 °F 41.6 °F 44.8 °F 100% 30.21 in 4.0 mi NE 5.8 mph - N/A   Overcast
8:35 AM 44.8 °F 42.4 °F 44.8 °F 100% 30.21 in 4.0 mi NE 4.6 mph - N/A   Overcast
8:55 AM 44.8 °F 43.3 °F 44.8 °F 100% 30.23 in 3.0 mi NNE 3.5 mph - N/A   Overcast
9:15 AM 44.8 °F 42.4 °F 44.8 °F 100% 30.24 in 2.0 mi NNE 4.6 mph - N/A   Overcast
9:35 AM 44.6 °F 41.4 °F 44.6 °F 100% 30.24 in 1.5 mi North 5.8 mph - N/A   Overcast
9:55 AM 44.6 °F 40.2 °F 44.6 °F 100% 30.24 in 1.5 mi North 8.1 mph - N/A   Overcast
10:15 AM 43.9 °F 40.5 °F 43.9 °F 100% 30.24 in 1.8 mi NNE 5.8 mph - N/A   Overcast
10:35 AM 44.1 °F 40.1 °F 44.1 °F 100% 30.24 in 2.5 mi NNE 6.9 mph - N/A   Overcast
10:55 AM 44.1 °F 41.5 °F 44.1 °F 100% 30.24 in 4.0 mi NE 4.6 mph - N/A   Overcast
11:15 AM 44.6 °F 42.2 °F 44.6 °F 100% 30.23 in 4.0 mi NE 4.6 mph - N/A   Overcast
11:35 AM 44.6 °F 41.4 °F 44.6 °F 100% 30.22 in 4.0 mi NE 5.8 mph - N/A   Overcast
11:55 AM 44.8 °F 43.3 °F 44.8 °F 100% 30.22 in 4.0 mi NE 3.5 mph - N/A   Overcast
12:15 PM 44.8 °F 42.4 °F 44.8 °F 100% 30.21 in 2.5 mi NE 4.6 mph - N/A   Overcast
12:35 PM 45.0 °F - 45.0 °F 100% 30.20 in 2.5 mi Calm Calm - N/A   Overcast
12:55 PM 44.8 °F 42.4 °F 44.8 °F 100% 30.19 in 1.8 mi NE 4.6 mph - N/A   Overcast
1:15 PM 44.8 °F 41.6 °F 44.8 °F 100% 30.18 in 2.0 mi ENE 5.8 mph - N/A   Overcast
1:35 PM 45.1 °F 42.0 °F 45.1 °F 100% 30.17 in 2.0 mi NE 5.8 mph - N/A   Overcast
1:55 PM 45.0 °F 41.8 °F 45.0 °F 100% 30.17 in 3.0 mi NNE 5.8 mph - N/A   Overcast
2:15 PM 45.1 °F - 45.1 °F 100% 30.16 in 3.0 mi Calm Calm - N/A   Overcast
2:35 PM 45.1 °F 42.8 °F 45.1 °F 100% 30.16 in 3.0 mi NNE 4.6 mph - N/A   Light Drizzle
2:55 PM 45.0 °F 43.5 °F 45.0 °F 100% 30.17 in 3.0 mi NE 3.5 mph - N/A   Light Drizzle
3:15 PM 44.8 °F 41.6 °F 44.8 °F 100% 30.16 in 2.5 mi NE 5.8 mph - N/A   Overcast
3:35 PM 44.6 °F 42.2 °F 44.6 °F 100% 30.16 in 1.8 mi NNE 4.6 mph - N/A   Overcast
3:55 PM 44.2 °F 41.8 °F 44.2 °F 100% 30.17 in 1.8 mi NNE 4.6 mph - N/A   Overcast
4:35 PM 43.7 °F 42.1 °F 43.7 °F 100% 30.17 in 2.0 mi NE 3.5 mph - N/A Rain Light Rain
4:55 PM 43.7 °F 42.1 °F 43.7 °F 100% 30.17 in 1.8 mi NNE 3.5 mph - N/A   Overcast
5:15 PM 43.7 °F 42.1 °F 43.7 °F 100% 30.17 in 1.8 mi NNE 3.5 mph - N/A   Overcast
5:55 PM 43.3 °F 39.9 °F 43.3 °F 100% 30.17 in 2.0 mi North 5.8 mph - N/A   Overcast
6:15 PM 43.2 °F 40.5 °F 43.2 °F 100% 30.17 in 2.0 mi NNE 4.6 mph - N/A   Overcast
6:35 PM 43.2 °F 39.7 °F 43.2 °F 100% 30.17 in 2.0 mi NNE 5.8 mph - N/A   Overcast
6:55 PM 43.2 °F 40.5 °F 43.2 °F 100% 30.17 in 2.0 mi ENE 4.6 mph - N/A   Overcast
7:15 PM 43.2 °F - 43.2 °F 100% 30.16 in 1.8 mi Calm Calm - N/A   Overcast
7:35 PM 43.2 °F 39.7 °F 43.2 °F 100% 30.16 in 1.5 mi NE 5.8 mph - N/A   Overcast
7:55 PM 43.0 °F - 43.0 °F 100% 30.15 in 1.2 mi Calm Calm - N/A   Overcast
8:15 PM 43.2 °F 41.5 °F 43.2 °F 100% 30.14 in 1.0 mi ENE 3.5 mph - N/A   Overcast
8:35 PM 43.2 °F 41.5 °F 43.2 °F 100% 30.15 in 1.0 mi NNE 3.5 mph - N/A   Overcast
8:55 PM 43.0 °F - 43.0 °F 100% 30.14 in 1.0 mi Calm Calm - N/A   Overcast
9:15 PM 43.2 °F - 43.2 °F 100% 30.13 in 1.2 mi Calm Calm - N/A   Overcast
9:35 PM 43.0 °F - 43.0 °F 100% 30.12 in 1.2 mi Calm Calm - N/A   Overcast
9:55 PM 43.0 °F 41.3 °F 43.0 °F 100% 30.11 in 1.8 mi East 3.5 mph - N/A   Overcast
10:15 PM 43.0 °F - 43.0 °F 100% 30.11 in 2.0 mi Calm Calm - N/A   Overcast
10:35 PM 43.0 °F 41.3 °F 43.0 °F 100% 30.11 in 2.0 mi NW 3.5 mph - N/A   Overcast
10:55 PM 43.2 °F - 43.2 °F 100% 30.11 in 1.2 mi Calm Calm - N/A   Overcast
11:15 PM 43.2 °F 41.5 °F 43.2 °F 100% 30.10 in 1.8 mi North 3.5 mph - N/A   Overcast
11:35 PM 43.0 °F 41.3 °F 43.0 °F 100% 30.10 in 1.8 mi North 3.5 mph - N/A   Overcast
11:55 PM 42.6 °F - 42.6 °F 100% 30.10 in 1.5 mi Calm Calm - N/A   Overcast